Tracking 29494 objects as of 8-Sep-2024
HD Live streaming from Space Station
objects crossing your sky now

FENGYUN 1C DEB

Track FENGYUN 1C DEB now!
10-day predictions


NORAD ID: 29835
Int'l Code: 1999-025ED
Perigee: 636.9 km
Apogee: 877.4 km
Inclination: 99.0 °
Period: 99.8 minutes
Semi major axis: 7128 km
RCS: 0.043 m2 (small)
Launch date: May 10, 1999
Source: People's Republic of China (PRC)
Launch site: Taiyaun Space Center, China (TSC)

Note: This is SATELLITE DEBRIS
Your satellite tracking list
Your tracking list is empty




NASA's NSSDC Master Catalog

Two Line Element Set (TLE):
1 29835U 99025ED  24251.82949463  .00001098  00000-0  29350-3 0  9991
2 29835  98.9919 348.1130 0168698 324.5359 157.4651 14.42568264928474
Source of the keplerian elements: AFSPC